Time,TemperatureF,DewpointF,PressureIn,WindDirection,WindDirectionDegrees,WindSpeedMPH,WindSpeedGustMPH,Humidity,HourlyPrecipIn,Conditions,Clouds,dailyrainin,SolarRadiationWatts/m^2,SoftwareType,DateUTC
2013-03-10 00:01:00,56.0,51.0,-100.00,NE,53,6.0,-999.0,82,0.00,,,-99.99,0.000000,,2013-03-10 05:01:00,
2013-03-10 00:11:00,55.0,51.0,-100.00,NE,49,6.0,-999.0,84,0.00,,,-99.99,0.000000,,2013-03-10 05:11:00,
2013-03-10 00:22:00,55.0,51.0,-100.00,NE,49,6.0,-999.0,84,0.00,,,-99.99,0.000000,,2013-03-10 05:22:00,
2013-03-10 00:31:00,55.0,51.0,-100.00,NE,48,6.0,-999.0,85,0.00,,,-99.99,0.000000,,2013-03-10 05:31:00,
2013-03-10 00:42:00,55.0,51.0,-100.00,NE,44,6.0,-999.0,86,0.00,,,-99.99,0.000000,,2013-03-10 05:42:00,
2013-03-10 00:52:00,55.0,51.0,-100.00,NE,44,6.0,-999.0,86,0.00,,,-99.99,0.000000,,2013-03-10 05:52:00,
2013-03-10 01:01:00,55.0,52.0,-100.00,ENE,58,4.0,-999.0,87,0.00,,,-99.99,0.000000,,2013-03-10 06:01:00,
2013-03-10 01:11:00,55.0,52.0,-100.00,NE,56,5.0,-999.0,87,0.00,,,-99.99,0.000000,,2013-03-10 06:11:00,
2013-03-10 01:22:00,55.0,52.0,-100.00,NE,56,5.0,-999.0,87,0.00,,,-99.99,0.000000,,2013-03-10 06:22:00,
2013-03-10 01:32:00,55.0,52.0,-100.00,NE,39,5.0,-999.0,88,0.00,,,-99.99,0.000000,,2013-03-10 06:32:00,
2013-03-10 01:42:00,55.0,52.0,-100.00,NE,37,6.0,-999.0,89,0.00,,,-99.99,0.000000,,2013-03-10 06:42:00,
2013-03-10 01:52:00,55.0,52.0,-100.00,NE,37,6.0,-999.0,89,0.00,,,-99.99,0.000000,,2013-03-10 06:52:00,
2013-03-10 03:02:00,56.0,53.0,-100.00,NE,35,6.0,-999.0,89,0.00,,,-99.99,0.000000,,2013-03-10 07:02:00,
2013-03-10 03:11:00,55.0,53.0,-100.00,NNE,31,6.0,-999.0,90,0.00,,,-99.99,0.000000,,2013-03-10 07:11:00,
2013-03-10 03:21:00,55.0,53.0,-100.00,NNE,31,6.0,-999.0,90,0.00,,,-99.99,0.000000,,2013-03-10 07:21:00,
2013-03-10 03:32:00,55.0,53.0,-100.00,NE,34,7.0,-999.0,90,0.00,,,-99.99,0.000000,,2013-03-10 07:32:00,
2013-03-10 03:42:00,55.0,53.0,-100.00,NNE,33,6.0,-999.0,91,0.00,,,-99.99,0.000000,,2013-03-10 07:42:00,
2013-03-10 03:52:00,55.0,53.0,-100.00,NNE,33,6.0,-999.0,91,0.00,,,-99.99,0.000000,,2013-03-10 07:52:00,
2013-03-10 04:01:00,55.0,53.0,-100.00,NNE,33,6.0,-999.0,91,0.00,,,-99.99,0.000000,,2013-03-10 08:01:00,
2013-03-10 04:11:00,55.0,53.0,-100.00,NE,40,6.0,-999.0,92,0.00,,,-99.99,0.000000,,2013-03-10 08:11:00,
2013-03-10 04:21:00,55.0,53.0,-100.00,NE,40,6.0,-999.0,92,0.00,,,-99.99,0.000000,,2013-03-10 08:21:00,
2013-03-10 04:31:00,55.0,52.0,-100.00,NE,35,6.0,-999.0,92,0.00,,,-99.99,0.000000,,2013-03-10 08:31:00,
2013-03-10 04:42:00,55.0,53.0,-100.00,NNE,28,5.0,-999.0,93,0.00,,,-99.99,0.000000,,2013-03-10 08:42:00,
2013-03-10 04:52:00,55.0,53.0,-100.00,NNE,28,5.0,-999.0,93,0.00,,,-99.99,0.000000,,2013-03-10 08:52:00,
2013-03-10 05:01:00,55.0,53.0,-100.00,NNE,25,6.0,-999.0,93,0.00,,,-99.99,0.000000,,2013-03-10 09:01:00,
2013-03-10 05:11:00,54.0,53.0,-100.00,NE,39,6.0,-999.0,93,0.00,,,-99.99,0.000000,,2013-03-10 09:11:00,
2013-03-10 05:21:00,54.0,53.0,-100.00,NE,39,6.0,-999.0,93,0.00,,,-99.99,0.000000,,2013-03-10 09:21:00,
2013-03-10 05:31:00,54.0,52.0,-100.00,NE,35,6.0,-999.0,94,0.00,,,-99.99,0.000000,,2013-03-10 09:31:00,
2013-03-10 05:41:00,54.0,52.0,-100.00,NNE,33,5.0,-999.0,94,0.00,,,-99.99,0.000000,,2013-03-10 09:41:00,
2013-03-10 05:52:00,54.0,52.0,-100.00,NNE,33,5.0,-999.0,94,0.00,,,-99.99,0.000000,,2013-03-10 09:52:00,
2013-03-10 06:01:00,53.0,52.0,-100.00,NE,43,3.0,-999.0,94,0.00,,,-99.99,0.000000,,2013-03-10 10:01:00,
2013-03-10 06:11:00,53.0,52.0,-100.00,NE,40,3.0,-999.0,94,0.00,,,-99.99,0.000000,,2013-03-10 10:11:00,
2013-03-10 06:21:00,53.0,52.0,-100.00,NE,40,3.0,-999.0,94,0.00,,,-99.99,0.000000,,2013-03-10 10:21:00,
2013-03-10 06:32:00,53.0,51.0,-100.00,NE,39,4.0,-999.0,95,0.00,,,-99.99,0.000000,,2013-03-10 10:32:00,
2013-03-10 06:42:00,53.0,52.0,-100.00,NE,38,4.0,-999.0,95,0.00,,,-99.99,0.000000,,2013-03-10 10:42:00,
2013-03-10 06:52:00,53.0,52.0,-100.00,NE,38,4.0,-999.0,95,0.00,,,-99.99,0.000000,,2013-03-10 10:52:00,
2013-03-10 07:01:00,53.0,52.0,-100.00,NNE,24,5.0,-999.0,95,0.00,,,-99.99,0.000000,,2013-03-10 11:01:00,
2013-03-10 07:12:00,54.0,52.0,-100.00,NNE,22,4.0,-999.0,95,0.00,,,-99.99,0.000000,,2013-03-10 11:12:00,
2013-03-10 07:21:00,54.0,52.0,-100.00,NNE,22,4.0,-999.0,95,0.00,,,-99.99,0.000000,,2013-03-10 11:21:00,
2013-03-10 07:32:00,54.0,52.0,-100.00,NNE,21,4.0,-999.0,95,0.00,,,-99.99,0.000000,,2013-03-10 11:32:00,
2013-03-10 07:42:00,54.0,52.0,-100.00,NNE,26,4.0,-999.0,96,0.00,,,-99.99,0.100000,,2013-03-10 11:42:00,
2013-03-10 07:52:00,54.0,52.0,-100.00,NNE,26,4.0,-999.0,96,0.00,,,-99.99,0.100000,,2013-03-10 11:52:00,
2013-03-10 08:01:00,54.0,53.0,-100.00,NE,38,5.0,-999.0,96,0.00,,,-99.99,3.200000,,2013-03-10 12:01:00,
2013-03-10 08:11:00,54.0,53.0,-100.00,NE,35,4.0,-999.0,95,0.00,,,-99.99,22.400000,,2013-03-10 12:11:00,
2013-03-10 08:21:00,54.0,53.0,-100.00,NE,35,4.0,-999.0,95,0.00,,,-99.99,22.400000,,2013-03-10 12:21:00,
2013-03-10 08:31:00,55.0,54.0,-100.00,NE,34,4.0,-999.0,94,0.00,,,-99.99,56.200001,,2013-03-10 12:31:00,
2013-03-10 08:42:00,55.0,54.0,-100.00,NNE,30,4.0,-999.0,93,0.00,,,-99.99,53.299999,,2013-03-10 12:42:00,
2013-03-10 08:52:00,55.0,54.0,-100.00,NNE,30,4.0,-999.0,93,0.00,,,-99.99,53.299999,,2013-03-10 12:52:00,
2013-03-10 09:01:00,56.0,54.0,-100.00,NNE,25,5.0,-999.0,93,0.00,,,-99.99,84.800003,,2013-03-10 13:01:00,
2013-03-10 09:11:00,57.0,55.0,-100.00,NNE,30,5.0,-999.0,91,0.00,,,-99.99,142.100006,,2013-03-10 13:11:00,
2013-03-10 09:21:00,57.0,55.0,-100.00,NNE,30,5.0,-999.0,91,0.00,,,-99.99,142.100006,,2013-03-10 13:21:00,
2013-03-10 09:31:00,59.0,56.0,-100.00,NNE,29,5.0,-999.0,88,0.00,,,-99.99,284.799988,,2013-03-10 13:31:00,
2013-03-10 09:41:00,60.0,55.0,-100.00,NNE,31,5.0,-999.0,83,0.00,,,-99.99,263.299988,,2013-03-10 13:41:00,
2013-03-10 09:52:00,60.0,55.0,-100.00,NNE,31,5.0,-999.0,83,0.00,,,-99.99,263.299988,,2013-03-10 13:52:00,
2013-03-10 10:01:00,62.0,55.0,-100.00,NE,41,5.0,-999.0,79,0.00,,,-99.99,292.299988,,2013-03-10 14:01:00,
2013-03-10 10:11:00,62.0,55.0,-100.00,NE,41,5.0,-999.0,79,0.00,,,-99.99,292.299988,,2013-03-10 14:11:00,
2013-03-10 10:21:00,62.0,55.0,-100.00,NE,41,5.0,-999.0,79,0.00,,,-99.99,292.299988,,2013-03-10 14:21:00,
2013-03-10 10:32:00,66.0,55.0,-100.00,East,79,7.0,-999.0,68,0.00,,,-99.99,484.100006,,2013-03-10 14:32:00,
2013-03-10 10:42:00,68.0,55.0,-100.00,East,97,6.0,-999.0,62,0.00,,,-99.99,476.000000,,2013-03-10 14:42:00,
2013-03-10 10:52:00,68.0,55.0,-100.00,East,97,6.0,-999.0,62,0.00,,,-99.99,476.000000,,2013-03-10 14:52:00,
2013-03-10 11:01:00,69.0,54.0,-100.00,East,89,9.0,-999.0,58,0.00,,,-99.99,407.899994,,2013-03-10 15:01:00,
2013-03-10 11:11:00,70.0,54.0,-100.00,ENE,74,9.0,-999.0,57,0.00,,,-99.99,504.500000,,2013-03-10 15:11:00,
2013-03-10 11:21:00,70.0,54.0,-100.00,ENE,74,9.0,-999.0,57,0.00,,,-99.99,504.500000,,2013-03-10 15:21:00,
2013-03-10 11:32:00,69.0,54.0,-100.00,East,85,10.0,-999.0,59,0.00,,,-99.99,479.200012,,2013-03-10 15:32:00,
2013-03-10 11:42:00,71.0,55.0,-100.00,East,88,10.0,-999.0,56,0.00,,,-99.99,694.599976,,2013-03-10 15:42:00,
2013-03-10 11:52:00,71.0,55.0,-100.00,East,88,10.0,-999.0,56,0.00,,,-99.99,694.599976,,2013-03-10 15:52:00,
2013-03-10 12:01:00,71.0,55.0,-100.00,ESE,115,11.0,-999.0,55,0.00,,,-99.99,513.099976,,2013-03-10 16:01:00,
2013-03-10 12:12:00,71.0,55.0,-100.00,East,98,12.0,-999.0,56,0.00,,,-99.99,621.200012,,2013-03-10 16:12:00,
2013-03-10 12:21:00,71.0,55.0,-100.00,East,98,12.0,-999.0,56,0.00,,,-99.99,621.200012,,2013-03-10 16:21:00,
2013-03-10 12:32:00,72.0,55.0,-100.00,East,90,11.0,-999.0,55,0.00,,,-99.99,621.599976,,2013-03-10 16:32:00,
2013-03-10 12:41:00,72.0,56.0,-100.00,ESE,123,13.0,-999.0,55,0.00,,,-99.99,678.700012,,2013-03-10 16:41:00,
2013-03-10 12:52:00,72.0,56.0,-100.00,ESE,123,13.0,-999.0,55,0.00,,,-99.99,678.700012,,2013-03-10 16:52:00,
2013-03-10 13:01:00,73.0,55.0,-100.00,ESE,114,12.0,-999.0,54,0.00,,,-99.99,665.900024,,2013-03-10 17:01:00,
2013-03-10 13:11:00,73.0,55.0,-100.00,ESE,114,11.0,-999.0,52,0.00,,,-99.99,724.000000,,2013-03-10 17:11:00,
2013-03-10 13:21:00,73.0,55.0,-100.00,ESE,114,11.0,-999.0,52,0.00,,,-99.99,724.000000,,2013-03-10 17:21:00,
2013-03-10 13:31:00,73.0,54.0,-100.00,ESE,106,13.0,-999.0,50,0.00,,,-99.99,518.099976,,2013-03-10 17:31:00,
2013-03-10 13:41:00,73.0,54.0,-100.00,East,99,12.0,-999.0,50,0.00,,,-99.99,557.900024,,2013-03-10 17:41:00,
2013-03-10 13:51:00,73.0,54.0,-100.00,East,99,12.0,-999.0,50,0.00,,,-99.99,557.900024,,2013-03-10 17:51:00,
2013-03-10 14:01:00,75.0,54.0,-100.00,SE,126,13.0,-999.0,46,0.00,,,-99.99,961.000000,,2013-03-10 18:01:00,
2013-03-10 14:11:00,76.0,53.0,-100.00,SE,134,11.0,-999.0,45,0.00,,,-99.99,836.000000,,2013-03-10 18:11:00,
2013-03-10 14:22:00,76.0,53.0,-100.00,SE,134,11.0,-999.0,45,0.00,,,-99.99,836.000000,,2013-03-10 18:22:00,
2013-03-10 14:32:00,75.0,53.0,-100.00,ESE,110,10.0,-999.0,46,0.00,,,-99.99,772.000000,,2013-03-10 18:32:00,
2013-03-10 14:42:00,76.0,54.0,-100.00,SE,129,12.0,-999.0,45,0.00,,,-99.99,870.000000,,2013-03-10 18:42:00,
2013-03-10 14:52:00,76.0,54.0,-100.00,SE,129,12.0,-999.0,45,0.00,,,-99.99,870.000000,,2013-03-10 18:52:00,
2013-03-10 15:01:00,76.0,53.0,-100.00,ESE,121,10.0,-999.0,44,0.00,,,-99.99,785.000000,,2013-03-10 19:01:00,
2013-03-10 15:11:00,76.0,53.0,-100.00,ESE,111,11.0,-999.0,45,0.00,,,-99.99,696.200012,,2013-03-10 19:11:00,
2013-03-10 15:21:00,76.0,53.0,-100.00,ESE,111,11.0,-999.0,45,0.00,,,-99.99,696.200012,,2013-03-10 19:21:00,
2013-03-10 15:32:00,76.0,53.0,-100.00,ESE,118,9.0,-999.0,44,0.00,,,-99.99,714.000000,,2013-03-10 19:32:00,
2013-03-10 15:42:00,78.0,52.0,-100.00,ESE,121,11.0,-999.0,41,0.00,,,-99.99,783.000000,,2013-03-10 19:42:00,
2013-03-10 15:53:00,78.0,52.0,-100.00,ESE,121,11.0,-999.0,41,0.00,,,-99.99,783.000000,,2013-03-10 19:53:00,
2013-03-10 16:02:00,78.0,52.0,-100.00,SE,133,10.0,-999.0,40,0.00,,,-99.99,721.000000,,2013-03-10 20:02:00,
2013-03-10 16:12:00,78.0,51.0,-100.00,SE,131,11.0,-999.0,39,0.00,,,-99.99,676.700012,,2013-03-10 20:12:00,
2013-03-10 16:22:00,78.0,51.0,-100.00,SE,131,11.0,-999.0,39,0.00,,,-99.99,676.700012,,2013-03-10 20:22:00,
2013-03-10 16:32:00,78.0,51.0,-100.00,East,101,10.0,-999.0,39,0.00,,,-99.99,636.299988,,2013-03-10 20:32:00,
2013-03-10 16:43:00,78.0,52.0,-100.00,SE,132,10.0,-999.0,39,0.00,,,-99.99,612.900024,,2013-03-10 20:43:00,
2013-03-10 16:53:00,78.0,52.0,-100.00,SE,132,10.0,-999.0,39,0.00,,,-99.99,612.900024,,2013-03-10 20:53:00,
2013-03-10 17:02:00,78.0,51.0,-100.00,SE,140,11.0,-999.0,39,0.00,,,-99.99,572.200012,,2013-03-10 21:02:00,
2013-03-10 17:12:00,77.0,53.0,-100.00,ESE,121,13.0,-999.0,43,0.00,,,-99.99,535.799988,,2013-03-10 21:12:00,
2013-03-10 17:23:00,77.0,53.0,-100.00,ESE,121,13.0,-999.0,43,0.00,,,-99.99,535.799988,,2013-03-10 21:23:00,
2013-03-10 17:32:00,77.0,54.0,-100.00,ESE,121,12.0,-999.0,45,0.00,,,-99.99,472.500000,,2013-03-10 21:32:00,
2013-03-10 17:42:00,75.0,54.0,-100.00,ESE,120,12.0,-999.0,47,0.00,,,-99.99,294.899994,,2013-03-10 21:42:00,
2013-03-10 17:53:00,75.0,54.0,-100.00,ESE,120,12.0,-999.0,47,0.00,,,-99.99,294.899994,,2013-03-10 21:53:00,
2013-03-10 18:02:00,76.0,54.0,-100.00,ESE,115,11.0,-999.0,47,0.00,,,-99.99,383.200012,,2013-03-10 22:02:00,
2013-03-10 18:12:00,75.0,54.0,-100.00,ESE,113,11.0,-999.0,46,0.00,,,-99.99,307.799988,,2013-03-10 22:12:00,
2013-03-10 18:22:00,75.0,54.0,-100.00,ESE,113,11.0,-999.0,46,0.00,,,-99.99,307.799988,,2013-03-10 22:22:00,
2013-03-10 18:32:00,75.0,54.0,-100.00,East,99,12.0,-999.0,48,0.00,,,-99.99,264.899994,,2013-03-10 22:32:00,
2013-03-10 18:43:00,75.0,54.0,-100.00,East,99,12.0,-999.0,48,0.00,,,-99.99,264.899994,,2013-03-10 22:43:00,
2013-03-10 18:53:00,73.0,54.0,-100.00,ESE,103,11.0,-999.0,50,0.00,,,-99.99,186.100006,,2013-03-10 22:53:00,
2013-03-10 19:03:00,73.0,54.0,-100.00,East,99,11.0,-999.0,52,0.00,,,-99.99,126.900002,,2013-03-10 23:03:00,
2013-03-10 19:12:00,72.0,54.0,-100.00,East,101,11.0,-999.0,54,0.00,,,-99.99,39.599998,,2013-03-10 23:12:00,
2013-03-10 19:23:00,72.0,54.0,-100.00,East,101,11.0,-999.0,54,0.00,,,-99.99,39.599998,,2013-03-10 23:23:00,
2013-03-10 19:33:00,70.0,54.0,-100.00,East,95,11.0,-999.0,56,0.00,,,-99.99,22.799999,,2013-03-10 23:33:00,
2013-03-10 19:42:00,69.0,54.0,-100.00,East,92,9.0,-999.0,58,0.00,,,-99.99,10.400000,,2013-03-10 23:42:00,
2013-03-10 19:52:00,69.0,54.0,-100.00,East,92,9.0,-999.0,58,0.00,,,-99.99,10.400000,,2013-03-10 23:52:00,
2013-03-10 20:02:00,69.0,54.0,-100.00,East,88,8.0,-999.0,60,0.00,,,-99.99,2.100000,,2013-03-11 00:02:00,
2013-03-10 20:13:00,68.0,54.0,-100.00,East,91,9.0,-999.0,61,0.00,,,-99.99,0.100000,,2013-03-11 00:13:00,
2013-03-10 20:23:00,68.0,54.0,-100.00,East,91,9.0,-999.0,61,0.00,,,-99.99,0.100000,,2013-03-11 00:23:00,
2013-03-10 20:33:00,67.0,54.0,-100.00,East,90,7.0,-999.0,63,0.00,,,-99.99,0.000000,,2013-03-11 00:33:00,
2013-03-10 20:43:00,66.0,54.0,-100.00,East,85,6.0,-999.0,65,0.00,,,-99.99,0.000000,,2013-03-11 00:43:00,
2013-03-10 20:53:00,66.0,54.0,-100.00,East,85,6.0,-999.0,65,0.00,,,-99.99,0.000000,,2013-03-11 00:53:00,
2013-03-10 21:03:00,66.0,54.0,-100.00,East,83,6.0,-999.0,66,0.00,,,-99.99,0.000000,,2013-03-11 01:03:00,
2013-03-10 21:13:00,65.0,54.0,-100.00,East,81,6.0,-999.0,68,0.00,,,-99.99,0.000000,,2013-03-11 01:13:00,
2013-03-10 21:23:00,65.0,54.0,-100.00,East,81,6.0,-999.0,68,0.00,,,-99.99,0.000000,,2013-03-11 01:23:00,
2013-03-10 21:32:00,64.0,54.0,-100.00,East,81,6.0,-999.0,70,0.00,,,-99.99,0.000000,,2013-03-11 01:32:00,
2013-03-10 21:42:00,64.0,54.0,-100.00,East,81,6.0,-999.0,70,0.00,,,-99.99,0.000000,,2013-03-11 01:42:00,
2013-03-10 21:53:00,64.0,55.0,-100.00,East,82,6.0,-999.0,71,0.00,,,-99.99,0.000000,,2013-03-11 01:53:00,
2013-03-10 22:02:00,64.0,55.0,-100.00,East,86,6.0,-999.0,73,0.00,,,-99.99,0.000000,,2013-03-11 02:02:00,
2013-03-10 22:12:00,63.0,55.0,-100.00,East,84,6.0,-999.0,74,0.00,,,-99.99,0.000000,,2013-03-11 02:12:00,
2013-03-10 22:23:00,63.0,55.0,-100.00,East,84,6.0,-999.0,74,0.00,,,-99.99,0.000000,,2013-03-11 02:23:00,
2013-03-10 22:32:00,63.0,55.0,-100.00,East,87,7.0,-999.0,75,0.00,,,-99.99,0.000000,,2013-03-11 02:32:00,
2013-03-10 22:42:00,62.0,55.0,-100.00,East,89,7.0,-999.0,77,0.00,,,-99.99,0.000000,,2013-03-11 02:42:00,
2013-03-10 22:53:00,62.0,55.0,-100.00,East,89,7.0,-999.0,77,0.00,,,-99.99,0.000000,,2013-03-11 02:53:00,
2013-03-10 23:02:00,62.0,55.0,-100.00,East,95,7.0,-999.0,79,0.00,,,-99.99,0.000000,,2013-03-11 03:02:00,
2013-03-10 23:12:00,61.0,56.0,-100.00,East,98,7.0,-999.0,81,0.00,,,-99.99,0.000000,,2013-03-11 03:12:00,
2013-03-10 23:22:00,61.0,56.0,-100.00,East,98,7.0,-999.0,81,0.00,,,-99.99,0.000000,,2013-03-11 03:22:00,
2013-03-10 23:32:00,61.0,56.0,-100.00,East,95,6.0,-999.0,82,0.00,,,-99.99,0.000000,,2013-03-11 03:32:00,
2013-03-10 23:42:00,61.0,56.0,-100.00,East,95,6.0,-999.0,82,0.00,,,-99.99,0.000000,,2013-03-11 03:42:00,
2013-03-10 23:53:00,61.0,56.0,-100.00,East,98,6.0,-999.0,83,0.00,,,-99.99,0.000000,,2013-03-11 03:53:00,